Location: Im Fang
(46.6019°N, 7.2397°E)
Time: 16:29:51
(UTC+00:00)

Cosmos 2084 Rocket - Pass Details

Date: 08 December 2019
Orbit: 572 x 610 km, 62.8° (Epoch: 24 January)

Event Time Altitude Azimuth Distance (km) Brightness Sun altitude
Exits shadow 05:11:26 39° 280° (W) 923 3.9 -18.1°
Maximum altitude 05:12:33 49° 236° (WSW) 791 3.8 -18.0°
Drops below altitude 10° 05:16:48 10° 162° (SSE) 1,947 6.5 -17.2°
Sets 05:19:06 0° 157° (SSE) 2,842 7.5 -16.9°
